Location: Le Sartre
(44.8050°N, 2.2123°E)
Time: 20:48:25
(UTC+00:00)

PSLV R/B - Pass Details

Date: 15 May 2026
Orbit: 586 x 678 km, 97.9° (Epoch: 8 June)

Event Time Altitude Azimuth Distance (km) Brightness Sun altitude
Rises 23:11:30 0° 15° (NNE) 2,880 8.0 -25.6°
Reaches altitude 10° 23:13:40 10° 17° (NNE) 1,985 7.0 -25.7°
Enters shadow 23:17:21 60° 49° (NE) 720 3.9 -25.8°
